Location: Observatoire
(46.1952°N, 5.3391°E)
Time: 00:31:55
(UTC+02:00)

CAS-6 - Visible Passes

Search period start: 19 April 2024 00:00
Search period end: 29 April 2024 00:00
Orbit: 608 x 629 km, 97.8° (Epoch: 18 April)

Date Brightness Start Highest point End Pass type
(mag) Time Alt. Az. Time Alt. Az. Time Alt. Az.
19 Apr ? 01:17:08 10° WNW 01:17:08 10° WNW 01:17:18 10° WNW visible
19 Apr ? 22:19:43 13° ENE 22:20:22 14° ENE 22:22:30 10° NNE visible
19 Apr ? 23:56:51 52° NW 23:56:51 52° NW 00:00:13 10° NNW visible
20 Apr ? 22:36:33 19° ENE 22:36:54 19° ENE 22:39:56 10° NNE visible
21 Apr ? 00:13:40 40° WNW 00:13:40 40° WNW 00:16:51 10° NNW visible
21 Apr ? 22:53:22 26° ENE 22:53:28 26° ENE 22:57:05 10° N visible
22 Apr ? 00:30:29 29° WNW 00:30:29 29° WNW 00:33:21 10° NNW visible
22 Apr ? 23:10:11 38° ENE 23:10:11 38° ENE 23:14:04 10° N visible
23 Apr ? 00:47:18 21° WNW 00:47:18 21° WNW 00:49:42 10° NW visible
23 Apr ? 23:26:59 54° NE 23:26:59 54° NE 23:30:56 10° N visible
24 Apr ? 01:04:06 15° WNW 01:04:06 15° WNW 01:05:44 10° NW visible
24 Apr ? 22:07:18 10° ENE 22:08:01 10° ENE 22:08:44 10° NE visible
24 Apr ? 23:43:47 72° N 23:43:47 72° N 23:47:42 10° NNW visible
25 Apr ? 22:23:28 14° ENE 22:24:30 15° ENE 22:26:53 10° NNE visible
26 Apr ? 00:00:35 60° WNW 00:00:35 60° WNW 00:04:22 10° NNW visible
26 Apr ? 22:40:15 20° ENE 22:41:00 21° ENE 22:44:12 10° NNE visible
27 Apr ? 00:17:22 41° WNW 00:17:22 41° WNW 00:20:56 10° NNW visible
27 Apr ? 22:57:03 28° E 22:57:32 29° ENE 23:01:15 10° N visible
28 Apr ? 00:34:10 29° W 00:34:10 29° W 00:37:22 10° NW visible
28 Apr ? 23:13:49 41° E 23:14:07 41° ENE 23:18:10 10° N visible
